Regional Weather Roundup
Issued by NWS Grand Forks, ND

Home | Current Version | Previous Version | Graphics & Text | Print | Product List | Glossary On
Versions: 1 2 3 4 5 6 7 8 9 10 11 12 13 14 15 16 17 18 19 20 21 22 23 24 25 26 27 28 29 30 31 32 33 34 35 36 37 38 39 40 41 42 43 44 45 46 47 48 49 50
000
ASUS43 KFGF 040010
RWRFGF
PRAIRIE TO PINES  WEATHER ROUNDUP
NATIONAL WEATHER SERVICE EASTERN NORTH DAKOTA/GRAND FORKS ND
700 PM CDT THU SEP 03 2015

 **SATELLITE DATA USED TO AUGMENT SKY COVER AT AUTOMATED STATIONS**
 *****  WEATHER ACROSS EASTERN NORTH DAKOTA  *****

CITY           SKY/WX    TMP DP  RH WIND       PRES   REMARKS
GRAND FORKS    MOSUNNY   89  71  55 SE22G29   29.69S HX  95
6HR MIN TEMP:  86; 6HR MAX TEMP:  93;

GRAND FRKS AFB SUNNY     89  73  57 SE14      29.69S HX  96
GRAND FRKS NWS   N/A     86 N/A N/A S10         N/A
DEVILS LAKE    SUNNY     90  66  45 SE14      29.65S HX  92
6HR MIN TEMP:  81; 6HR MAX TEMP:  95;

FARGO          CLEAR     89  73  59 SE17G26   29.72F HX  97
WAHPETON ARPT  CLEAR     88  68  51 SE16      29.76S HX  91
$$

 ***** WEATHER ACROSS CENTRAL AND WESTERN NORTH DAKOTA  *****

CITY           SKY/WX    TMP DP  RH WIND       PRES   REMARKS
BISMARCK       PTSUNNY   93  56  28 S15       29.66R HX  91
6HR MIN TEMP:  91; 6HR MAX TEMP: 101;

MINOT          SUNNY     86  69  56 NW14      29.64S HX  90
6HR MIN TEMP:  86; 6HR MAX TEMP:  94;

JAMESTOWN      SUNNY     86  64  47 S10       29.71R
6HR MIN TEMP:  86; 6HR MAX TEMP:  96;

MINOT AFB      NOT AVBL
GARRISON         N/A     94  55  26 CALM      29.65R HX  92
WILLISTON      MOSUNNY   82  53  36 N16       29.72S
6HR MIN TEMP:  82; 6HR MAX TEMP:  88;

DICKINSON      MOSUNNY   88  54  31 N6        29.70S
6HR MIN TEMP:  85; 6HR MAX TEMP:  91;

HETTINGER      MOSUNNY   91  47  21 W5        29.72S
6HR MIN TEMP:  87; 6HR MAX TEMP:  93;

$$

 *****  OTHER AIRPORT OBSERVATIONS IN OUR AREA  *****

CITY           SKY/WX    TMP DP  RH WIND       PRES   REMARKS
WALHALLA       FAIR      86  73  66 MISG      29.66R HX  93
GRAFTON AIRPOR FAIR      90  72  55 SE18G28   29.68S HX  96
VALLEY CITY AR FAIR      90  64  43 S14G21    29.72S HX  91
CANDO          NOT AVBL
CAVALIER APRT  FAIR      90  72  55 S14G24    29.66S HX  96
GWINNER          N/A     88  88 100 SE16      29.73S HX 120
SHEYENNE NWR     N/A     87  74  64 SE14      29.95S HX  95
ROLLA            N/A     90  68  48 SE8       29.67S HX  93
 ***** THE ABOVE OBSERVATIONS ARE NON NWS ARE NOT QUALITY
       CONTROLLED AND MAY MIS-REPORT RAIN FOR SNOW...
$$

  *****  WEATHER ACROSS NORTHERN MINNESOTA  *****

CITY           SKY/WX    TMP DP  RH WIND       PRES   REMARKS
FLAG ISLAND    CLEAR     79  64  61 SE15      29.79F
WARROAD        CLEAR     82  70  65 SE14G21   29.80S
ROSEAU         CLEAR     82  72  69 SE16      29.78S
HALLOCK        CLEAR     90  70  51 SE21G26   29.69S HX  95
THF RVR FALLS  CLEAR     84  70  61 SE12      29.77R
6HR MIN TEMP:  84; 6HR MAX TEMP:  90;

BAUDETTE       CLEAR     81  64  56 SE15G23   29.83S
6HR MIN TEMP:  79; 6HR MAX TEMP:  85;

WASKISH        CLEAR     79  64  61 E10G16    29.85S
CROOKSTON      PTCLDY    88  72  58 S16       29.74S HX  94
STEPHEN NDAWN    N/A     88  72  58 S13         N/A  HX  94
GREENBUSH NDAW   N/A     84  72  65 SE12        N/A
$$
  *****  WEATHER ACROSS CENTRAL AND WEST MINNESOTA  *****

CITY           SKY/WX    TMP DP  RH WIND       PRES   REMARKS
FOSSTON        CLEAR     84  68  58 SE8       29.81S
BEMIDJI        CLEAR     79  67  66 SE16      29.85S
PARK RAPIDS    CLEAR     82  69  64 SE14G21   29.86S
6HR MIN TEMP:  82; 6HR MAX TEMP:  88;

ELBOW LAKE     FAIR      83  74  73 SE10      29.80F HAZE    HX  90
6HR MIN TEMP:  81; 6HR MAX TEMP:  86;

WADENA         PTCLDY    81  72  74 SE15      29.85S
DETROIT LAKES  CLEAR     82  72  69 SE12G18   29.83S
MOORHEAD       CLEAR     88  73  62 SE14G22   29.74F HX  96
FERGUS FALLS   CLEAR     84  73  70 SE12G18   29.77F HX  91
MORRIS MN      CLEAR     86  75  70 CALM      29.79S HX  95
STAPLES        PTCLDY    81  70  69 SE6       29.87R
$$
  *****  WEATHER ELSEWHERE ACROSS MINNESOTA  *****

CITY           SKY/WX    TMP DP  RH WIND       PRES   REMARKS
DULUTH         CLEAR     65  53  65 E9        29.96S
6HR MIN TEMP:  62; 6HR MAX TEMP:  72;

INTRNTL FALLS  CLEAR     78  64  61 SE9       29.88F
6HR MIN TEMP:  78; 6HR MAX TEMP:  84;

ELY            CLEAR     73  55  53 SE5       29.97S
CLOQUET        CLEAR     64  54  68 E5        29.96S
WHEATON        NOT AVBL
BRAINERD       CLEAR     79  68  69 VRB7      29.88F
6HR MIN TEMP:  77; 6HR MAX TEMP:  82;

HIBBING        CLEAR     73  60  63 SE10      29.94S
6HR MIN TEMP:  73; 6HR MAX TEMP:  80;

ALEXANDRIA     CLEAR     82  74  76 SE12      29.85F
6HR MIN TEMP:  80; 6HR MAX TEMP:  86;

SAINT CLOUD    CLEAR     80  72  76 E8        29.86S
6HR MIN TEMP:  80; 6HR MAX TEMP:  85;

MINNEAPOLIS    PTCLDY    82  72  71 E13       29.87R
6HR MIN TEMP:  81; 6HR MAX TEMP:  84;

$$

  *****  WEATHER ACROSS SOUTH DAKOTA  *****

CITY           SKY/WX    TMP DP  RH WIND       PRES   REMARKS
SIOUX FALLS    PTCLDY    83  71  67 S13       29.78S
6HR MIN TEMP:  83; 6HR MAX TEMP:  87;

BROOKINGS      CLEAR     82  70  65 SE14      29.80F
WATERTOWN      SUNNY     85  72  65 SE10      29.78S HX  91
6HR MIN TEMP:  85; 6HR MAX TEMP:  91;

HURON          SUNNY     87  71  58 SE13      29.71S HX  93
6HR MIN TEMP:  86; 6HR MAX TEMP:  92;

SISSETON         N/A     87  74  64 SE14      29.74F HX  95
ABERDEEN       SUNNY     88  71  57 SE9       29.72R HX  94
6HR MIN TEMP:  88; 6HR MAX TEMP:  93;

MITCHELL       MOSUNNY   85  72  65 SE10      29.73S HX  91
PIERRE         PTSUNNY   87  56  34 SE10      29.68R
6HR MIN TEMP:  87; 6HR MAX TEMP: 100;

MOBRIDGE       CLOUDY    83  61  47 SE6       29.67R
RAPID CITY     MOSUNNY   87  55  33 NW14      29.73R
6HR MIN TEMP:  87; 6HR MAX TEMP:  96;

$$

  *****  SOME WEATHER IN NEARBY STATES *****

CITY           SKY/WX    TMP DP  RH WIND       PRES   REMARKS
GLASGOW MT     MOSUNNY   77  36  22 NE21      29.79S
6HR MIN TEMP:  74; 6HR MAX TEMP:  83;

GREAT FALLS MT RAIN      52  47  83 NW7       29.94R
6HR MIN TEMP:  52; 6HR MAX TEMP:  63; 6HR PCP:  0.02;

CHEYENNE WY    CLOUDY    71  45  39 SW21      30.04R
6HR MIN TEMP:  70; 6HR MAX TEMP:  84; 6HR PCP: TRACE;

SCOTTSBLUFF NE LGT RAIN  79  49  34 E12       29.85F
6HR MIN TEMP:  80; 6HR MAX TEMP:  91; 6HR PCP: TRACE;

OMAHA NE       PTCLDY    88  73  61 SE17      29.79S HX  95
6HR MIN TEMP:  87; 6HR MAX TEMP:  94;

DES MOINES IA  PTCLDY    86  70  58 S8        29.85S HX  90
6HR MIN TEMP:  86; 6HR MAX TEMP:  91;

DAVENPORT IA   CLEAR     84  72  67 S3        29.89S
6HR MIN TEMP:  84; 6HR MAX TEMP:  90;

CHICAGO IL     MOCLDY    76  69  79 NE16      29.90R
6HR MIN TEMP:  77; 6HR MAX TEMP:  91;

EAU CLAIRE WI  CLEAR     77  68  73 E10       29.91S
6HR MIN TEMP:  75; 6HR MAX TEMP:  83;

LA CROSSE WI   PTCLDY    84  71  65 E6        29.87S
6HR MIN TEMP:  84; 6HR MAX TEMP:  89;

$$

  *****  SOME NATIONAL WEATHER *****

CITY           SKY/WX    TMP DP  RH WIND       PRES   REMARKS
LA GUARDIA NY  MOCLDY    86  64  47 S9        29.83R
6HR MIN TEMP:  85; 6HR MAX TEMP:  93;

RALEIGH NC     CLOUDY    79  71  76 CALM      29.90R
6HR MIN TEMP:  79; 6HR MAX TEMP:  91;

ATLANTA GA     MOCLDY    75  69  81 NW5       29.96S
6HR MIN TEMP:  72; 6HR MAX TEMP:  89; 6HR PCP:  0.41;

NEW ORLEANS LA MOCLDY    82  74  76 SE5       29.90F
6HR MIN TEMP:  81; 6HR MAX TEMP:  86; 6HR PCP: TRACE;

OKLAHOMA CITY  MOSUNNY   89  62  40 S12       29.87F
6HR MIN TEMP:  89; 6HR MAX TEMP:  93;

ALBUQUERQUE NM MOSUNNY   86  41  20 CALM      30.01F
6HR MIN TEMP:  79; 6HR MAX TEMP:  88;

SALT LAKE CITY PTSUNNY   89  30  12 S17G29    29.75F
6HR MIN TEMP:  83; 6HR MAX TEMP:  89;




USA.gov is the U.S. government's official web portal to all federal, state and local government web resources and services.